Regional Weather Roundup
Issued by NWS Upton, NY

Current Version | Previous Version | Graphics & Text | Print | Product List | Glossary Off
Versions: 1 2 3 4 5 6 7 8 9 10 11 12 13 14 15 16 17 18 19 20 21 22 23 24 25 26 27 28 29 30 31 32 33 34 35 36 37 38 39 40 41 42 43 44 45 46 47 48 49 50

211
ASUS41 KOKX 271904
RWROKX

REGIONAL WEATHER ROUNDUP
NATIONAL WEATHER SERVICE NEW YORK NY
300 PM EDT FRI MAY 27 2016

NOTE: "FAIR" INDICATES FEW OR NO CLOUDS BELOW 12,000 FEET WITH NO
SIGNIFICANT WEATHER AND/OR OBSTRUCTIONS TO VISIBILITY.

NYZ071-072-176-178-NJZ106-104-272000-
NEW YORK CITY METRO AREA


CITY           SKY/WX    TMP DP  RH WIND       PRES   REMARKS
CENTRAL PARK   SUNNY     82  63  52 VRB6G16   30.06F
LAGUARDIA APRT MOSUNNY   84  69  60 SE13G20   30.03F
KENNEDY INTL   MOSUNNY   72  62  71 S9        30.07F
NEWARK/LIBERTY PTSUNNY   84  65  52 SE13G22   30.01F
BRNX BOT. GARD   N/A     82  64  54 S12       30.06R
TETERBORO      PTSUNNY   86  63  45 SE12      30.00F
$$

NYZ177-179-078>081-272000-
LONG ISLAND NEW YORK

CITY           SKY/WX    TMP DP  RH WIND       PRES   REMARKS
FARMINGDALE    SUNNY     76  64  66 S13       30.07S
ISLIP          MOSUNNY   72  62  71 S13       30.07F
SHIRLEY        SUNNY     72  61  68 S12       30.09S
RIVERHEAD        N/A     77  64  65 SW3       30.06S
WESTHAMPTON    SUNNY     70  60  70 SW12      30.10F
EAST HAMPTON   FAIR      67  59  75 SW12G18   30.09S
MONTAUK POINT    N/A     66  60  81 S12G18    30.10S
$$

NYZ052-065-067-272000-
HUDSON VALLEY

CITY           SKY/WX    TMP DP  RH WIND       PRES   REMARKS
WHITE PLAINS   SUNNY     83  66  56 SE13G18   30.04F
NEWBURGH       RAIN      75  72  88 W14       30.05R FOG
MONTGOMERY     CLOUDY    76  69  79 E5        30.01S
POUGHKEEPSIE   MOSUNNY   88  65  46 S8        30.00S HX  90
ALBANY         LGT RAIN  79  67  66 S7        30.00S
$$

NJZ001-105-106-008-010-013-015-019>022-104-272000-
NEW JERSEY

CITY           SKY/WX    TMP DP  RH WIND       PRES   REMARKS
NEWARK/LIBERTY PTSUNNY   84  65  52 SE13G22   30.01F
TETERBORO      PTSUNNY   86  63  45 SE12      30.00F
CALDWELL       PTSUNNY   87  65  47 S8        30.01F
MORRISTOWN     PTSUNNY   88  66  48 SW9       30.01F HX  90
SOMERVILLE     MOSUNNY   89  67  47 VRB5      29.99F HX  92
SUSSEX         MOSUNNY   88  64  44 S9        30.01F
ANDOVER          N/A     84  65  52 SW9       30.02F
TRENTON        PTSUNNY   88  64  44 SW10G18   30.01F
MILLVILLE      SUNNY     85  67  54 S9        30.06F
ATLANTIC CITY  SUNNY     81  64  56 S18       30.07S
WRIGHTSTOWN    MOSUNNY   90  66  45 SW14G22   30.00F HX  93
TOMS RIVER     PTSUNNY   86  64  48 S15G21    30.04S
BELMAR         PTSUNNY   78  67  68 S10G17    30.05F
$$

PAZ047>061-062-071-272000-
EASTERN PENNSYLVANIA

CITY           SKY/WX    TMP DP  RH WIND       PRES   REMARKS
PHILADELPHIA   MOSUNNY   89  64  43 SW16      30.03F HX  90
ALLENTOWN      MOSUNNY   88  66  48 SW9G17    30.02F HX  90
SCRANTON       SUNNY     87  63  44 W7G18     30.02F
$$

CTZ002-004>006-009-010-012-RIZ004-006-007-MAZ004-011-015-272000-
SOUTHERN NEW ENGLAND
 IN CT

CITY           SKY/WX    TMP DP  RH WIND       PRES   REMARKS
BRADLEY INTL   PTSUNNY   85  64  49 S14       30.02S
HARTFORD       MOSUNNY   87  66  49 S10       30.02F
DANBURY        SUNNY     84  65  52 S15       30.04F
WTRBRY/OXFORD  PTSUNNY   82  64  54 S13       30.07F
BRIDGEPORT     SUNNY     70  61  73 E10       30.05F
MERIDEN        MOSUNNY   86  65  49 S9        30.04F
NEW HAVEN      MOSUNNY   76  63  64 E10       30.05F
CHESTER        FAIR      81  64  57 S8        30.07F
GROTON         MOSUNNY   68  63  84 S9        30.07F
WILLIMANTIC    MOSUNNY   87  62  43 S14       30.04F

 IN RI

CITY           SKY/WX    TMP DP  RH WIND       PRES   REMARKS
PROVIDENCE     PTSUNNY   72  61  68 SE13      30.07S
BLOCK ISLAND   SUNNY     66  59  78 SW18G25   30.10S
WESTERLY       SUNNY     69  57  65 S13       30.09S

 IN MA

CITY           SKY/WX    TMP DP  RH WIND       PRES   REMARKS
BOSTON         CLOUDY    62  56  80 E13       30.08S
WORCESTER      PTSUNNY   82  61  48 S8        30.06F
WESTFIELD      CLOUDY    84  65  52 S14G21    30.01F
PROVINCETOWN   SUNNY     76  62  62 S12       30.08F
NANTUCKET      SUNNY     66  58  75 SW13      30.11F
$$

ANZ330-335-338-340-345-350-353-355-272000-
COASTAL MARINE OBSERVATIONS


STATION/POSITION TIME  SKY/WX   TEMP    WIND        PRES    VSBY  WAVE
                                AIR SEA DIR/SP/G                  HT/PER
                 (UTC)          (F)     (DEG/KT/KT) (MB)    (MI)  (FT/S)
NY HARB ENTRANCE 1750            63 61  180/ 12/ 14 1017.5          3/ 5
20S FIRE ISLAND  1750            61 60  200/ 14/ 16 1018.4          3/ 4
GREAT SOUTH BAY  1800            63 68  200/ 10/ 14   N/A
23 SSW MONTAUK P 1850            60 58  210/ 12/ 14 1018.7          3/ 8
15 E BARNEGAT LI 1822               60                N/A           3/ 5
HUDSON CANYON    1750            62 57              1020.0          3/ 5
KINGS POINT      1800            73 61              1017.1
EXECUTION ROCKS  NOT AVBL
CENTRAL LI SOUND 1800            63      90/  8/ 10   N/A           0
EASTERN LI SOUND 1800            59 54  150/  8/ 12   N/A
ROBBINS REEF     1812            70     180/ 18/ 21 1016.5
$$


>>>>>>>>>>>>>>>>>>>>>>>>>>>> KEY <<<<<<<<<<<<<<<<<<<<<<<<<<<
>                                                          <
>     SKY/WX - SKY CONDITION/PRESENT WEATHER               <
>     TMP    - TEMPERATURE IN FAHRENHEIT                   <
>     DP     - DEWPOINT IN FAHRENHEIT                      <
>     RH     - RELATIVE HUMIDITY IN PERCENT                <
>     WIND   - DIRECTION AND SPEED IN MPH                  <
>     PRES   - MEAN SEA LEVEL PRESSURE IN INCHES OF HG     <
>     WCI    - WIND CHILL INDEX                            <
>     VSB    - VISIBILITY IN MILES                         <
>     HX     - HEAT INDEX                                  <
>     TC     - TEMPERATURE IN CELSIUS                      <
>     VRB    - VARIABLE WIND DIRECTION                     <
>                                                          <
>>>>>>>>>>>>>>>>>>>>>>>>>>>> KEY <<<<<<<<<<<<<<<<<<<<<<<<<<<






USA.gov is the U.S. government's official web portal to all federal, state and local government web resources and services.